This demonstration page uses our WeatherBlox Daily Observations layout. Learn more.

Left ArrowRight Arrow

38.83388, -104.82136

Hourly Observations for May 15, 2018

Temp ( °F °C ) Dew Point ( °F °C ) Humidity (%) Winds ( mph kmh ) Pressure ( in mb ) Visibility ( mi km ) Precip ( " mm )
12:58 am 00:58 Mostly Cloudy 51 10.6 35 1.7 54 54 NNW 13 20 29.75 1007 10 16 0.00 0.00
1:58 am 01:58 Mostly Cloudy 49 9.3 38 3.6 68 68 N 5 7 29.75 1007 10 16 0.00 0.00
2:58 am 02:58 Mostly Cloudy 50 9.9 37 2.7 61 61 NNW 3 6 29.73 1007 10 16 0.00 0.00
3:58 am 03:58 Mostly Cloudy 48 9 38 3.2 67 67 SSE 3 6 29.73 1007 10 16 0.00 0.00
4:58 am 04:58 Mostly Cloudy 47 8.4 38 3.2 70 70 S 9 15 29.75 1007 10 16 0.00 0.00
5:58 am 05:58 Mostly Cloudy 49 9.2 36 2.4 63 63 S 9 15 29.75 1007 10 16 0.00 0.00
6:58 am 06:58 Mostly Cloudy 49 9.6 38 3.3 65 65 S 13 20 29.77 1008 10 16 0.00 0.00
7:58 am 07:58 Mostly Cloudy 52 11.2 38 3.4 59 59 SSE 9 15 29.76 1008 10 16 0.00 0.00
8:58 am 08:58 Mostly Sunny 56 13.3 40 4.2 54 54 ESE 15 24 29.76 1008 10 16 0.00 0.00
9:58 am 09:58 Sunny 58 14.2 39 3.7 49 49 SE 16 26 29.75 1007 10 16 0.00 0.00
10:58 am 10:58 Mostly Sunny 59 15.1 38 3.5 46 46 SE 16 26 29.74 1007 10 16 0.00 0.00
11:58 am 11:58 Mostly Sunny 63 17 38 3.4 41 41 ESE 16 26 29.70 1006 10 16 0.00 0.00
12:58 pm 12:58 Mostly Cloudy 62 16.5 39 4 44 44 SE 17 28 29.68 1005 10 16 0.00 0.00
1:58 pm 13:58 Mostly Cloudy 62 16.7 38 3.4 41 41 SSE 18 30 29.67 1005 10 16 0.00 0.00
2:58 pm 14:58 Mostly Cloudy 64 17.5 38 3.2 39 39 SSE 18 30 29.64 1004 10 16 0.00 0.00
3:58 pm 15:58 Partly Cloudy 65 18.3 38 3.6 38 38 SE 15 24 29.63 1004 10 16 0.00 0.00
4:58 pm 16:58 Mostly Cloudy 65 18.3 38 3.2 37 37 SSE 22 35 29.59 1002 10 16 0.00 0.00
5:09 pm 17:09 Mostly Cloudy with Thunderstorms 66 19 37 3 35 35 SE 22 35 29.58 1002 10 16 0.00 0.00
5:35 pm 17:35 Mostly Cloudy with Nearby Thunderstorms 63 17 39 4 42 42 SSE 18 30 29.61 1003 10 16 0.00 0.00
5:38 pm 17:38 Mostly Cloudy with Thunderstorms 63 17 37 3 39 39 SSE 16 26 29.61 1003 10 16 0.00 0.00
5:53 pm 17:53 Mostly Cloudy 64 18 37 3 37 37 SSE 16 26 29.60 1002 10 16 0.00 0.00
5:58 pm 17:58 Partly Cloudy 63 17.4 37 2.9 38 38 SSE 15 24 29.62 1003 10 16 0.00 0.00
6:36 pm 18:36 Mostly Cloudy with Thunderstorms 63 17 39 4 42 42 NNE 6 9 29.65 1004 10 16 0.00 0.00
6:43 pm 18:43 Mostly Cloudy with Thunderstorms 61 16 39 4 45 45 NW 13 20 29.65 1004 10 16 0.00 0.00
6:51 pm 18:51 Mostly Cloudy with Light Showers 61 16 41 5 48 48 Calm 29.64 1004 10 16 0.00 0.00
6:58 pm 18:58 Mostly Cloudy with Light Showers 59 15.1 44 6.8 58 58 NNE 8 13 29.66 1004 10 16 0.00 0.00
7:02 pm 19:02 Mostly Cloudy 59 15 43 6 55 55 N 12 19 29.65 1004 10 16 0.00 0.00
7:58 pm 19:58 Mostly Sunny 59 15.1 40 4.6 50 50 Calm 29.62 1003 10 16 0.00 0.00
8:58 pm 20:58 Mostly Cloudy 57 13.9 42 5.5 57 57 S 9 15 29.66 1004 10 16 0.00 0.00
9:58 pm 21:58 Mostly Cloudy 56 13.3 42 5.3 59 59 SSW 8 13 29.70 1006 10 16 0.00 0.00
10:58 pm 22:58 Mostly Cloudy 54 12.4 40 4.7 60 60 S 10 17 29.73 1007 10 16 0.00 0.00
11:58 pm 23:58 Mostly Clear 54 12.2 39 4 58 58 S 14 22 29.70 1006 10 16 0.00 0.00

Powered by AerisWeather